Wind_Speed
24 24 23 23 22 22 21 21 20 20 20 20 20 20 21 22 22 23 23 24 25 26 28 29 31 32 34 35 35 35 34 34 33 33 33 33 33 33 33 32 32 31 30
25 25 24 24 24 24 23 23 23 23 23 23 23 23 24 24 25 25 26 27 28 29 30 31 32 34 35 36 36 36 35 35 34 34 33 34 34 33 33 33 32 31 30
26 25 26 26 26 25 25 25 25 25 25 25 26 26 26 27 27 28 29 29 30 31 33 34 35 36 37 37 37 37 36 36 35 35 35 35 35 34 33 33 32 31 30
26 26 26 27 27 27 27 27 27 28 28 28 28 29 29 30 31 31 31 32 33 34 35 36 37 38 38 38 38 37 37 36 35 35 35 35 35 35 34 34 32 31 30
27 26 27 27 28 28 29 29 29 30 30 31 31 32 32 33 33 34 34 35 35 36 37 38 39 40 40 40 39 38 37 37 36 36 36 36 36 35 35 34 32 31 29
27 27 28 28 29 30 30 31 31 32 33 33 33 34 35 35 36 36 37 37 38 39 40 40 41 42 41 40 39 39 38 37 36 36 36 36 36 36 35 34 32 30 29
29 29 29 30 31 31 32 32 33 33 34 35 35 35 36 37 38 39 39 40 41 42 43 43 43 42 41 40 40 39 38 37 37 37 37 37 37 36 35 34 32 30 28
31 31 32 32 32 32 33 33 34 35 36 37 37 37 37 38 38 39 40 42 43 44 44 43 43 42 41 41 40 39 38 38 37 37 37 37 36 35 34 33 32 30 27
34 33 33 34 35 35 35 35 35 36 37 38 39 40 40 39 39 39 41 43 44 43 44 43 42 42 41 40 40 39 39 38 38 38 38 37 36 35 34 32 31 29 26
35 35 35 36 36 36 36 37 38 38 39 40 41 42 42 43 42 42 42 44 44 44 43 43 42 41 41 41 40 40 40 39 38 38 38 37 36 34 33 31 30 28 25
36 37 37 37 37 37 38 39 40 40 41 42 43 43 44 45 46 46 45 44 45 44 43 43 42 42 41 41 41 40 40 39 39 39 38 37 35 34 32 30 28 27 25
37 38 38 38 39 39 39 40 41 42 43 44 44 46 47 47 47 47 46 45 44 43 43 43 42 42 41 41 41 41 40 39 39 38 38 36 34 33 31 29 27 26 24
39 40 40 40 40 40 41 43 44 44 45 45 46 47 47 48 48 47 47 46 45 45 44 44 44 44 43 42 42 41 40 40 39 38 37 35 33 31 29 28 26 24 23
43 42 43 42 42 43 44 44 46 47 47 47 47 47 47 48 47 47 47 47 46 45 45 45 45 44 44 44 43 42 41 40 39 38 36 34 32 30 28 27 25 24 23
45 45 46 45 46 46 47 48 48 48 48 47 48 48 48 47 48 48 48 48 47 46 45 45 45 45 45 44 43 42 41 40 38 37 34 33 31 29 28 26 25 24 23
46 47 47 48 49 49 49 50 50 50 50 50 50 50 50 49 49 49 49 49 48 48 47 46 46 46 45 44 43 42 40 39 37 35 33 32 30 28 27 26 25 23 23
47 48 48 49 50 51 50 50 50 50 50 50 50 50 49 50 50 49 49 49 48 48 48 47 46 45 44 43 42 41 38 37 36 34 32 31 29 28 27 26 24 23 22
49 49 49 49 49 50 50 50 50 50 50 49 49 49 49 49 49 48 48 48 48 47 47 46 45 45 44 43 41 39 37 36 34 32 31 30 29 28 27 25 24 23 23
49 49 50 50 50 51 51 50 50 50 49 48 48 47 47 47 47 47 47 46 46 46 46 45 44 43 42 41 39 37 35 34 32 32 31 30 28 27 26 25 25 24 24
49 49 49 49 50 49 49 48 48 47 47 46 46 46 46 46 46 46 45 45 45 45 44 44 42 41 40 38 36 35 34 33 32 30 29 28 27 26 25 25 25 25 25
48 47 47 47 47 46 46 45 45 45 45 45 45 45 44 44 44 44 44 44 44 43 42 41 40 38 37 35 34 33 32 31 30 29 28 27 27 26 26 26 26 26 26
47 47 46 46 46 46 46 46 45 45 44 44 43 43 43 43 43 43 43 43 42 41 40 39 38 36 35 33 32 32 31 30 29 28 27 27 26 26 27 27 27 27 27
49 48 48 47 47 47 46 45 44 44 43 43 42 42 42 41 41 41 41 40 39 38 37 37 36 35 33 32 32 31 30 29 28 27 27 27 27 27 28 28 28 28 28
48 48 47 46 46 45 45 44 43 42 42 41 41 41 41 40 40 39 39 38 37 36 35 34 33 33 32 32 31 30 29 29 28 27 27 28 28 28 28 28 28 29 29
47 46 45 45 44 43 43 43 42 42 41 40 40 39 39 38 37 37 36 35 34 33 33 32 32 31 31 31 31 30 29 28 28 28 28 28 28 29 29 29 29 30 30
46 45 45 44 43 43 42 42 41 41 40 40 39 38 37 36 35 34 34 33 32 31 31 30 30 30 30 30 30 29 28 28 28 28 28 29 29 29 29 30 30 31 31
Wind_Direction
241 244 247 250 253 256 260 264 267 270 273 276 278 281 283 287 290 293 297 300 303 305 307 309 311 313 314 314 313 313 313 314 315 315 315 316 316 316 316 315 314 313 311
241 244 248 251 254 257 260 263 266 269 271 274 277 280 282 286 289 292 295 297 300 303 305 306 308 310 311 311 311 310 311 312 312 313 313 314 315 314 314 315 314 312 309
241 245 248 251 254 256 259 262 265 268 271 274 276 279 282 285 288 290 292 295 298 301 303 305 306 308 308 308 308 307 307 308 309 310 311 313 313 313 313 314 313 311 308
241 245 249 251 254 256 259 262 264 267 270 274 276 279 281 284 286 288 291 293 296 299 302 303 304 305 305 306 305 305 305 306 307 308 310 311 312 312 312 312 311 310 307
242 247 251 253 256 258 260 262 265 267 270 272 275 278 280 283 285 287 289 291 294 298 300 301 302 303 303 303 303 303 303 304 305 307 309 310 310 310 311 311 310 308 306
244 248 252 255 258 260 262 264 266 267 270 272 275 277 280 282 284 287 288 291 293 296 298 299 300 301 301 300 300 301 301 302 304 305 307 308 309 309 309 309 308 306 304
246 250 255 258 260 262 264 265 267 269 271 272 274 277 280 282 284 285 287 290 292 294 296 297 299 299 299 298 298 299 300 301 302 304 305 307 308 308 307 307 306 304 302
249 253 257 260 262 264 265 266 268 270 272 273 275 277 279 280 283 286 287 290 292 294 295 296 297 297 297 297 297 297 298 299 301 303 304 305 306 306 306 305 304 302 300
251 254 257 260 264 265 266 268 270 271 274 275 276 278 280 278 280 283 286 289 291 292 294 295 295 295 295 295 295 296 297 298 299 301 303 304 304 304 304 303 302 300 297
253 257 259 262 263 264 267 269 271 273 274 276 278 280 282 282 282 284 286 287 289 290 291 292 293 293 293 293 294 295 295 296 298 300 301 302 302 302 301 300 298 296 294
257 259 261 263 265 266 268 269 271 273 276 277 279 280 282 283 285 287 288 288 288 289 290 291 291 292 292 292 293 293 294 295 296 298 299 299 299 299 298 297 295 293 291
262 261 262 265 267 269 270 270 272 275 277 278 280 281 282 284 285 287 288 288 288 289 289 290 291 291 291 291 291 292 292 293 295 296 297 297 297 297 296 294 292 290 290
264 265 266 267 268 269 271 272 274 275 278 279 280 283 284 285 286 287 288 288 288 288 289 289 289 289 289 290 290 290 291 292 294 295 296 295 294 293 292 290 289 288 287
266 266 267 268 269 271 272 274 276 278 278 280 282 284 285 285 286 286 287 288 288 288 288 288 288 288 288 289 289 289 290 291 292 293 293 292 291 290 289 287 285 284 284
266 267 267 268 271 273 274 276 277 278 280 281 282 284 285 285 286 286 287 287 287 287 286 287 286 286 287 288 288 288 289 290 291 291 290 288 288 286 285 284 282 281 281
268 269 271 271 273 275 276 278 278 279 280 281 283 284 285 285 286 286 286 286 287 286 286 285 285 286 286 287 287 288 288 289 289 288 287 285 284 283 282 281 279 278 278
269 270 271 272 273 274 276 277 278 279 281 282 283 285 285 285 286 285 285 285 285 285 285 284 284 285 285 286 286 286 286 287 287 286 285 283 281 280 279 278 276 276 276
268 270 271 273 274 275 277 277 279 280 282 283 284 284 285 286 285 285 285 284 284 284 284 284 284 284 284 285 285 284 284 284 284 282 281 281 279 278 276 274 274 274 274
267 269 271 273 274 275 277 278 280 281 282 283 284 285 285 285 285 284 284 284 284 284 284 284 284 284 284 284 284 282 282 281 280 280 279 277 276 274 273 272 273 274 275
268 269 271 272 274 275 277 279 280 282 282 283 284 284 285 284 284 284 284 284 284 284 284 284 284 284 283 283 282 281 280 278 278 277 276 275 273 271 271 272 273 274 275
268 269 271 272 274 276 278 279 280 281 282 283 284 284 284 284 284 284 284 284 284 283 283 283 283 283 282 282 280 279 277 277 276 274 273 272 271 270 271 273 274 274 275
268 269 271 273 274 276 278 279 281 281 282 282 283 283 284 284 285 285 285 284 284 284 282 282 281 281 281 280 278 276 275 274 273 272 271 270 270 270 272 273 274 275 275
268 270 271 273 274 275 277 278 279 280 281 281 282 283 284 285 285 285 285 285 285 284 283 281 280 279 278 277 275 274 272 272 271 271 271 270 271 272 273 274 274 275 275
268 270 271 272 273 275 275 276 277 279 279 280 282 283 284 284 285 285 285 285 284 283 282 281 279 278 276 275 274 272 270 270 269 269 270 271 272 274 275 275 275 275 276
267 268 269 271 272 273 274 274 275 277 279 280 282 283 284 284 284 285 284 284 283 282 281 280 278 276 274 273 272 270 269 269 269 270 271 272 274 275 275 275 276 276 277
265 266 267 269 270 272 273 274 275 276 278 279 281 282 282 283 283 283 283 282 281 280 280 279 277 276 274 272 271 270 269 270 271 272 273 275 277 277 277 277 277 277 278
Height
5844 5845 5847 5848 5849 5850 5851 5852 5852 5852 5852 5852 5852 5852 5851 5851 5850 5849 5848 5846 5845 5843 5841 5838 5836 5833 5830 5827 5824 5821 5817 5814 5811 5808 5805 5801 5798 5794 5791 5787 5784 5781 5778
5839 5840 5842 5843 5844 5845 5846 5847 5847 5847 5847 5847 5847 5847 5846 5845 5845 5844 5842 5841 5839 5837 5835 5833 5830 5827 5824 5821 5818 5815 5812 5809 5806 5802 5799 5796 5792 5789 5785 5782 5779 5776 5773
5833 5835 5836 5837 5838 5839 5840 5841 5841 5842 5842 5842 5842 5841 5840 5840 5839 5838 5836 5835 5833 5831 5829 5827 5824 5821 5818 5815 5812 5809 5806 5803 5799 5796 5793 5790 5786 5783 5779 5776 5773 5770 5767
5827 5829 5830 5832 5833 5833 5834 5835 5835 5836 5836 5836 5836 5835 5834 5834 5833 5831 5830 5828 5827 5825 5823 5820 5818 5815 5812 5809 5806 5802 5799 5796 5793 5790 5787 5783 5780 5777 5773 5770 5767 5764 5761
5821 5823 5824 5825 5826 5827 5828 5828 5829 5829 5830 5830 5829 5829 5828 5827 5826 5825 5823 5822 5820 5818 5816 5813 5811 5808 5805 5802 5799 5796 5793 5790 5786 5783 5780 5777 5773 5770 5767 5764 5761 5758 5755
5815 5816 5818 5819 5820 5821 5821 5822 5822 5822 5823 5823 5822 5822 5821 5820 5819 5817 5816 5814 5812 5810 5808 5806 5803 5800 5797 5794 5791 5788 5785 5782 5779 5776 5773 5770 5767 5763 5760 5757 5754 5751 5749
5808 5809 5810 5812 5813 5814 5814 5814 5815 5815 5815 5815 5815 5814 5814 5813 5811 5810 5808 5807 5805 5802 5800 5798 5795 5792 5789 5786 5783 5780 5778 5775 5772 5769 5766 5763 5759 5756 5753 5750 5748 5745 5743
5800 5802 5803 5804 5805 5806 5806 5807 5807 5807 5807 5806 5806 5806 5806 5806 5803 5802 5800 5798 5796 5793 5791 5789 5786 5784 5781 5778 5775 5773 5770 5767 5764 5761 5758 5755 5752 5749 5746 5744 5741 5739 5736
5792 5793 5795 5796 5797 5798 5798 5799 5799 5799 5798 5798 5797 5797 5797 5797 5796 5795 5792 5790 5787 5785 5782 5780 5777 5775 5772 5770 5767 5764 5762 5759 5756 5753 5750 5747 5745 5742 5739 5737 5734 5732 5730
5784 5785 5786 5787 5788 5789 5790 5790 5790 5790 5790 5789 5789 5788 5787 5786 5786 5786 5784 5781 5779 5776 5774 5771 5768 5766 5763 5761 5758 5756 5753 5751 5748 5745 5742 5740 5737 5734 5732 5729 5727 5726 5724
5776 5777 5777 5778 5780 5780 5780 5781 5781 5781 5780 5780 5779 5778 5777 5776 5774 5774 5774 5771 5769 5767 5764 5762 5759 5757 5754 5752 5749 5747 5744 5742 5739 5736 5734 5731 5729 5726 5724 5722 5720 5719 5718
5767 5768 5769 5769 5770 5771 5771 5772 5771 5771 5771 5770 5769 5769 5767 5766 5765 5763 5762 5761 5758 5757 5754 5752 5749 5747 5745 5742 5740 5738 5735 5733 5730 5728 5725 5723 5721 5719 5717 5715 5713 5712 5711
5758 5759 5760 5760 5761 5761 5762 5762 5762 5761 5761 5760 5759 5758 5757 5756 5754 5752 5751 5749 5748 5746 5744 5742 5739 5737 5734 5732 5730 5728 5725 5723 5721 5718 5716 5714 5712 5711 5709 5707 5706 5705 5705
5748 5749 5750 5750 5751 5751 5752 5752 5751 5751 5750 5749 5748 5747 5746 5744 5742 5741 5739 5738 5737 5735 5733 5731 5728 5726 5724 5722 5719 5717 5715 5713 5711 5709 5707 5705 5704 5702 5701 5700 5699 5699 5698
5738 5739 5740 5740 5740 5741 5741 5741 5740 5740 5739 5738 5737 5736 5734 5733 5731 5729 5727 5726 5725 5723 5722 5720 5717 5715 5713 5711 5709 5707 5705 5703 5701 5700 5698 5697 5695 5694 5693 5693 5692 5692 5691
5728 5728 5729 5729 5730 5730 5730 5729 5729 5728 5728 5727 5726 5724 5723 5721 5719 5717 5715 5713 5712 5711 5710 5708 5706 5704 5701 5700 5698 5696 5694 5693 5691 5690 5689 5688 5687 5686 5686 5685 5685 5685 5685
5717 5717 5717 5718 5718 5718 5718 5718 5717 5716 5716 5715 5713 5712 5710 5709 5707 5705 5703 5701 5700 5698 5697 5696 5694 5692 5690 5688 5687 5685 5684 5683 5682 5681 5680 5679 5679 5678 5678 5678 5677 5677 5677
5705 5706 5706 5706 5706 5706 5706 5706 5705 5704 5703 5702 5701 5700 5698 5696 5695 5693 5691 5689 5688 5686 5685 5684 5682 5681 5679 5677 5676 5675 5674 5673 5672 5671 5671 5671 5670 5670 5670 5670 5670 5670 5671
5694 5694 5694 5694 5695 5695 5694 5694 5693 5692 5691 5690 5689 5687 5686 5684 5683 5681 5679 5678 5676 5674 5673 5672 5671 5669 5668 5667 5665 5664 5664 5663 5663 5662 5662 5662 5662 5662 5662 5662 5662 5663 5663
5682 5682 5682 5683 5683 5682 5682 5682 5681 5680 5679 5678 5677 5675 5674 5673 5671 5670 5668 5666 5665 5663 5662 5660 5659 5658 5657 5656 5655 5655 5654 5654 5654 5653 5653 5653 5654 5654 5654 5654 5655 5655 5655
5669 5670 5670 5670 5671 5671 5670 5670 5669 5669 5668 5667 5665 5664 5662 5661 5659 5658 5656 5655 5653 5652 5650 5649 5648 5647 5647 5646 5646 5645 5645 5645 5645 5645 5645 5645 5646 5646 5646 5647 5647 5647 5647
5657 5658 5658 5659 5659 5659 5659 5659 5658 5657 5656 5655 5654 5653 5651 5650 5648 5647 5645 5643 5642 5641 5639 5639 5638 5637 5637 5636 5636 5636 5636 5636 5637 5637 5637 5637 5638 5638 5638 5638 5638 5638 5638
5645 5646 5647 5647 5647 5647 5647 5647 5647 5646 5645 5644 5643 5642 5640 5639 5637 5636 5634 5633 5631 5630 5629 5629 5628 5627 5627 5627 5627 5627 5628 5628 5628 5628 5629 5629 5629 5630 5630 5630 5630 5630 5630
5633 5634 5635 5635 5635 5636 5636 5636 5635 5635 5634 5633 5632 5631 5630 5628 5627 5625 5624 5622 5621 5620 5619 5619 5618 5618 5618 5618 5619 5619 5619 5619 5620 5620 5621 5621 5621 5621 5621 5621 5620 5620 5620
5620 5621 5622 5623 5623 5624 5624 5624 5624 5624 5623 5622 5621 5620 5619 5617 5616 5615 5614 5613 5612 5611 5610 5610 5609 5609 5609 5609 5610 5610 5611 5611 5612 5612 5612 5612 5612 5612 5612 5612 5611 5611 5611
5608 5609 5610 5611 5612 5612 5612 5612 5612 5612 5612 5611 5610 5609 5608 5607 5606 5605 5604 5603 5603 5602 5602 5601 5601 5601 5601 5601 5602 5602 5603 5603 5603 5604 5604 5603 5603 5603 5603 5602 5602 5601 5601